Temp: 5.9°C   Baro: 996.2mb
  Wind: 2.0mph   Dir: E (83°)
  Rain: 0.2mm (0.0mm/hr)
  Solar: 0W/m2  Hum: 92%
 
Bath Spa Weather Historical Data
Daily Summary for November 10, 2019 Units:  Metric    English   Both
Next Day »
Daily Weekly Monthly Yearly Custom
  High: Low: Average:
Temperature: 10.5 °C 5.1 °C 6.6 °C
Dew Point: 6.5 °C 3.5 °C 4.7 °C
Humidity: 94% 75% 88%
Wind Speed: 24.1km/h 0.0km/h 5km/h
Wind Gust: 33.8km/h - -
Wind direction- - ESE
Pressure: 1014.8 hPa 1002.9 hPa -
Precipitation: 1.3 mm    
Historical Graphs
 
 
Tabular Data for November 10, 2019
Time Temperature Dew Point Pressure Wind direction Wind Speed Wind Gust Humidity Rainfall Rate (Hourly) solar
00:00 5.2 °C 4.3 °C 1002.9 hPa NW 3.2 km/h 4.8 km/h 94% 0.0 mm 0.00 W/m2
00:05 5.2 °C 4.3 °C 1002.9 hPa NW 11.1 km/h 12.9 km/h 94% 0.0 mm 0.00 W/m2
00:10 5.2 °C 4.3 °C 1002.9 hPa Calm   3.2 km/h 94% 0.0 mm 0.00 W/m2
00:15 5.2 °C 4.3 °C 1002.9 hPa North 1.4 km/h 8.0 km/h 94% 0.0 mm 0.00 W/m2
00:20 5.2 °C 4.3 °C 1002.9 hPa NNW 11.1 km/h 12.9 km/h 94% 0.0 mm 0.00 W/m2
00:25 5.2 °C 4.3 °C 1003.3 hPa North 9.7 km/h 9.7 km/h 94% 0.0 mm 0.00 W/m2
00:30 5.3 °C 4.4 °C 1002.9 hPa North 13.0 km/h 14.5 km/h 94% 0.0 mm 0.00 W/m2
00:35 5.3 °C 4.4 °C 1003.3 hPa Calm   8.0 km/h 94% 0.0 mm 0.00 W/m2
00:40 5.3 °C 4.4 °C 1003.3 hPa NNE 13.0 km/h 12.9 km/h 94% 0.0 mm 0.00 W/m2
00:45 5.3 °C 4.4 °C 1003.3 hPa NW 1.4 km/h 8.0 km/h 94% 0.0 mm 0.00 W/m2
00:50 5.3 °C 4.4 °C 1003.3 hPa North 7.9 km/h 12.9 km/h 94% 0.0 mm 0.00 W/m2
00:55 5.3 °C 4.4 °C 1003.3 hPa North 11.1 km/h 14.5 km/h 94% 0.0 mm 0.00 W/m2
01:00 5.3 °C 4.4 °C 1003.3 hPa NW 11.1 km/h 12.9 km/h 94% 0.0 mm 0.00 W/m2
01:05 5.3 °C 4.4 °C 1003.3 hPa NW 6.4 km/h 14.5 km/h 94% 0.0 mm 0.00 W/m2
01:10 5.3 °C 4.4 °C 1003.3 hPa North 16.3 km/h 17.7 km/h 94% 0.0 mm 0.00 W/m2
01:15 5.4 °C 4.5 °C 1003.3 hPa NNW 9.7 km/h 14.5 km/h 94% 0.0 mm 0.00 W/m2
01:20 5.3 °C 4.4 °C 1003.3 hPa NNE 6.4 km/h 12.9 km/h 94% 0.0 mm 0.00 W/m2
01:25 5.3 °C 4.4 °C 1003.3 hPa North 9.7 km/h 19.3 km/h 94% 0.0 mm 0.00 W/m2
01:30 5.4 °C 4.5 °C 1003.6 hPa NNW 7.9 km/h 9.7 km/h 94% 0.0 mm 0.00 W/m2
01:35 5.4 °C 4.4 °C 1003.6 hPa NNW 4.7 km/h 14.5 km/h 93% 0.0 mm 0.00 W/m2
01:40 5.4 °C 4.4 °C 1003.6 hPa North 11.1 km/h 16.1 km/h 93% 0.0 mm 0.00 W/m2
01:45 5.3 °C 4.3 °C 1003.9 hPa North 3.2 km/h 12.9 km/h 93% 0.0 mm 0.00 W/m2
01:50 5.3 °C 4.3 °C 1003.9 hPa NW 7.9 km/h 14.5 km/h 93% 0.0 mm 0.00 W/m2
01:55 5.3 °C 4.3 °C 1003.9 hPa North 7.9 km/h 12.9 km/h 93% 0.3 mm 0.00 W/m2
02:00 5.3 °C 4.3 °C 1003.9 hPa NNW 11.1 km/h 16.1 km/h 93% 0.3 mm 0.00 W/m2
02:05 5.2 °C 4.2 °C 1003.9 hPa North 9.7 km/h 12.9 km/h 93% 0.3 mm 0.00 W/m2
02:10 5.2 °C 4.2 °C 1003.9 hPa NNW 6.4 km/h 17.7 km/h 93% 0.5 mm 0.00 W/m2
02:15 5.2 °C 4.2 °C 1003.9 hPa NNW 9.7 km/h 12.9 km/h 93% 0.5 mm 0.00 W/m2
02:20 5.2 °C 4.2 °C 1003.9 hPa North 7.9 km/h 9.7 km/h 93% 0.5 mm 0.00 W/m2
02:25 5.2 °C 4.2 °C 1003.9 hPa NNE 6.4 km/h 11.3 km/h 93% 0.5 mm 0.00 W/m2
02:30 5.1 °C 4.1 °C 1003.9 hPa NNW 4.7 km/h 16.1 km/h 93% 0.5 mm 0.00 W/m2
02:35 5.1 °C 4.1 °C 1004.3 hPa NNE 11.1 km/h 16.1 km/h 93% 0.5 mm 0.00 W/m2
02:40 5.1 °C 4.1 °C 1004.3 hPa North 7.9 km/h 14.5 km/h 93% 0.5 mm 0.00 W/m2
02:45 5.2 °C 4.2 °C 1004.3 hPa North 19.5 km/h 22.5 km/h 93% 0.5 mm 0.00 W/m2
02:50 5.2 °C 4.2 °C 1004.3 hPa North 14.3 km/h 30.6 km/h 93% 0.5 mm 0.00 W/m2
02:55 5.2 °C 4.2 °C 1004.6 hPa NNW 6.4 km/h 16.1 km/h 93% 0.3 mm 0.00 W/m2
03:00 5.2 °C 4.2 °C 1004.6 hPa NNW 14.3 km/h 16.1 km/h 93% 0.3 mm 0.00 W/m2
03:05 5.3 °C 4.3 °C 1004.6 hPa NNE 7.9 km/h 22.5 km/h 93% 0.3 mm 0.00 W/m2
03:10 5.4 °C 4.4 °C 1004.6 hPa North 17.7 km/h 20.9 km/h 93% 0.0 mm 0.00 W/m2
03:15 5.5 °C 4.5 °C 1005.0 hPa NE 4.7 km/h 14.5 km/h 93% 0.0 mm 0.00 W/m2
03:20 5.6 °C 4.6 °C 1005.0 hPa NNE 4.7 km/h 9.7 km/h 93% 0.0 mm 0.00 W/m2
03:25 5.7 °C 4.7 °C 1005.3 hPa North 7.9 km/h 8.0 km/h 93% 0.0 mm 0.00 W/m2
03:30 5.8 °C 4.8 °C 1005.3 hPa NNE 7.9 km/h 12.9 km/h 93% 0.0 mm 0.00 W/m2
03:35 5.8 °C 4.8 °C 1005.6 hPa NE 7.9 km/h 14.5 km/h 93% 0.0 mm 0.00 W/m2
03:40 5.9 °C 4.9 °C 1005.6 hPa North 6.4 km/h 14.5 km/h 93% 0.0 mm 0.00 W/m2
03:45 6.0 °C 5.0 °C 1005.6 hPa NNE 6.4 km/h 8.0 km/h 93% 0.0 mm 0.00 W/m2
03:50 6.0 °C 5.0 °C 1005.6 hPa NE 11.1 km/h 19.3 km/h 93% 0.0 mm 0.00 W/m2
03:55 6.0 °C 5.0 °C 1006.0 hPa NNE 4.7 km/h 17.7 km/h 93% 0.0 mm 0.00 W/m2
04:00 6.0 °C 5.0 °C 1006.0 hPa North 4.7 km/h 17.7 km/h 93% 0.0 mm 0.00 W/m2
04:05 6.0 °C 5.0 °C 1006.3 hPa NE 11.1 km/h 22.5 km/h 93% 0.0 mm 0.00 W/m2
04:10 6.0 °C 5.0 °C 1006.3 hPa NE 4.7 km/h 24.1 km/h 93% 0.0 mm 0.00 W/m2
04:15 5.9 °C 4.9 °C 1006.3 hPa East 16.3 km/h 22.5 km/h 93% 0.0 mm 0.00 W/m2
04:20 5.9 °C 4.9 °C 1006.7 hPa NNE 16.3 km/h 16.1 km/h 93% 0.0 mm 0.00 W/m2
04:25 5.9 °C 4.9 °C 1006.7 hPa East 14.3 km/h 16.1 km/h 93% 0.0 mm 0.00 W/m2
04:30 5.9 °C 4.7 °C 1007.0 hPa NNW 6.4 km/h 9.7 km/h 92% 0.0 mm 0.00 W/m2
04:35 5.9 °C 4.7 °C 1007.0 hPa NE 13.0 km/h 33.8 km/h 92% 0.0 mm 0.00 W/m2
04:40 5.9 °C 4.7 °C 1007.3 hPa NE 9.7 km/h 19.3 km/h 92% 0.0 mm 0.00 W/m2
04:45 5.9 °C 4.7 °C 1007.3 hPa ENE 13.0 km/h 25.7 km/h 92% 0.0 mm 0.00 W/m2
04:50 5.9 °C 4.7 °C 1007.3 hPa ENE 4.7 km/h 17.7 km/h 92% 0.3 mm 0.00 W/m2
04:55 5.9 °C 4.7 °C 1007.7 hPa NE 11.1 km/h 22.5 km/h 92% 0.3 mm 0.00 W/m2
05:00 5.9 °C 4.7 °C 1007.7 hPa NNE 11.1 km/h 19.3 km/h 92% 0.3 mm 0.00 W/m2
05:05 6.0 °C 4.8 °C 1007.7 hPa East 14.3 km/h 17.7 km/h 92% 0.3 mm 0.00 W/m2
05:10 6.1 °C 4.9 °C 1007.7 hPa ENE 13.0 km/h 33.8 km/h 92% 0.3 mm 0.00 W/m2
05:15 6.1 °C 4.9 °C 1008.0 hPa NE 17.7 km/h 17.7 km/h 92% 0.3 mm 0.00 W/m2
05:20 6.1 °C 4.9 °C 1008.0 hPa NNE 24.1 km/h 33.8 km/h 92% 0.3 mm 0.00 W/m2
05:25 6.1 °C 4.9 °C 1008.0 hPa NE 14.3 km/h 27.4 km/h 92% 0.3 mm 0.00 W/m2
05:30 6.2 °C 5.0 °C 1008.4 hPa NE 11.1 km/h 29.0 km/h 92% 0.3 mm 0.00 W/m2
05:35 6.2 °C 4.8 °C 1008.4 hPa NNE 16.3 km/h 30.6 km/h 91% 0.3 mm 0.00 W/m2
05:40 6.2 °C 4.8 °C 1008.4 hPa North 6.4 km/h 24.1 km/h 91% 0.3 mm 0.00 W/m2
05:45 6.2 °C 4.8 °C 1008.7 hPa NE 11.1 km/h 17.7 km/h 91% 0.3 mm 0.00 W/m2
05:50 6.2 °C 4.8 °C 1008.7 hPa NE 11.1 km/h 14.5 km/h 91% 0.0 mm 0.00 W/m2
05:55 6.2 °C 4.8 °C 1008.7 hPa ENE 17.7 km/h 25.7 km/h 91% 0.0 mm 0.00 W/m2
06:00 6.2 °C 4.8 °C 1009.0 hPa ENE 1.4 km/h 19.3 km/h 91% 0.0 mm 0.00 W/m2
06:05 6.1 °C 4.7 °C 1009.0 hPa NE 7.9 km/h 17.7 km/h 91% 0.0 mm 0.00 W/m2
06:10 6.1 °C 4.7 °C 1009.0 hPa NNE 4.7 km/h 11.3 km/h 91% 0.0 mm 0.00 W/m2
06:15 6.1 °C 4.7 °C 1009.4 hPa NNE 3.2 km/h 17.7 km/h 91% 0.0 mm 0.00 W/m2
06:20 6.1 °C 4.7 °C 1009.7 hPa NNE 6.4 km/h 11.3 km/h 91% 0.0 mm 0.00 W/m2
06:25 6.1 °C 4.7 °C 1009.7 hPa North 9.7 km/h 17.7 km/h 91% 0.0 mm 0.00 W/m2
06:30 6.0 °C 4.6 °C 1010.0 hPa NNE 19.5 km/h 19.3 km/h 91% 0.0 mm 0.00 W/m2
06:35 6.1 °C 4.7 °C 1010.0 hPa NE 3.2 km/h 11.3 km/h 91% 0.0 mm 0.00 W/m2
06:40 6.1 °C 4.7 °C 1010.4 hPa NE 1.4 km/h 16.1 km/h 91% 0.0 mm 0.00 W/m2
06:45 6.1 °C 4.7 °C 1010.4 hPa NE 17.7 km/h 20.9 km/h 91% 0.0 mm 0.00 W/m2
06:50 6.0 °C 4.6 °C 1010.4 hPa Calm   14.5 km/h 91% 0.0 mm 0.00 W/m2
06:55 6.0 °C 4.6 °C 1010.4 hPa NE 4.7 km/h 11.3 km/h 91% 0.0 mm 0.00 W/m2
07:00 5.9 °C 4.5 °C 1010.7 hPa NNE 4.7 km/h 16.1 km/h 91% 0.0 mm 0.00 W/m2
07:05 5.9 °C 4.5 °C 1010.7 hPa NE 7.9 km/h 9.7 km/h 91% 0.0 mm 0.00 W/m2
07:10 5.9 °C 4.5 °C 1010.7 hPa NE 4.7 km/h 17.7 km/h 91% 0.0 mm 0.00 W/m2
07:15 5.9 °C 4.5 °C 1011.1 hPa North 6.4 km/h 16.1 km/h 91% 0.0 mm 0.00 W/m2
07:20 5.9 °C 4.4 °C 1011.1 hPa NNE 13.0 km/h 22.5 km/h 90% 0.0 mm 0.00 W/m2
07:25 5.9 °C 4.4 °C 1011.1 hPa East 11.1 km/h 16.1 km/h 90% 0.0 mm 0.00 W/m2
07:30 5.9 °C 4.4 °C 1011.4 hPa ENE 4.7 km/h 17.7 km/h 90% 0.0 mm 0.00 W/m2
07:35 6.0 °C 4.5 °C 1011.4 hPa NE 7.9 km/h 12.9 km/h 90% 0.0 mm 5.00 W/m2
07:40 5.9 °C 4.2 °C 1011.4 hPa NE 3.2 km/h 17.7 km/h 89% 0.0 mm 7.00 W/m2
07:45 5.9 °C 4.2 °C 1011.4 hPa NNE 19.5 km/h 19.3 km/h 89% 0.0 mm 9.00 W/m2
07:50 5.9 °C 4.2 °C 1011.7 hPa NNE 3.2 km/h 16.1 km/h 89% 0.0 mm 11.00 W/m2
07:55 5.9 °C 4.1 °C 1011.7 hPa NE 4.7 km/h 12.9 km/h 88% 0.0 mm 12.00 W/m2
08:00 5.9 °C 4.1 °C 1011.7 hPa NNE 4.7 km/h 17.7 km/h 88% 0.0 mm 11.00 W/m2
08:05 5.9 °C 4.1 °C 1012.1 hPa North 1.4 km/h 11.3 km/h 88% 0.0 mm 12.00 W/m2
08:10 5.9 °C 4.1 °C 1012.1 hPa Calm   14.5 km/h 88% 0.0 mm 14.00 W/m2
08:15 6.0 °C 4.0 °C 1012.1 hPa NE 7.9 km/h 16.1 km/h 87% 0.0 mm 16.00 W/m2
08:20 5.9 °C 3.9 °C 1012.4 hPa NNE 4.7 km/h 16.1 km/h 87% 0.0 mm 19.00 W/m2
08:25 5.9 °C 3.9 °C 1012.4 hPa NE 3.2 km/h 11.3 km/h 87% 0.0 mm 23.00 W/m2
08:30 5.9 °C 3.9 °C 1012.4 hPa NE 6.4 km/h 11.3 km/h 87% 0.0 mm 28.00 W/m2
08:35 6.0 °C 4.0 °C 1012.8 hPa NE 7.9 km/h 19.3 km/h 87% 0.0 mm 32.00 W/m2
08:40 6.1 °C 4.1 °C 1012.8 hPa North 1.4 km/h 14.5 km/h 87% 0.0 mm 32.00 W/m2
08:45 6.0 °C 3.8 °C 1012.8 hPa NE 1.4 km/h 4.8 km/h 86% 0.0 mm 37.00 W/m2
08:50 6.0 °C 3.8 °C 1012.8 hPa NE 7.9 km/h 9.7 km/h 86% 0.0 mm 42.00 W/m2
08:55 6.0 °C 3.8 °C 1013.1 hPa ENE 4.7 km/h 4.8 km/h 86% 0.0 mm 40.00 W/m2
09:00 6.1 °C 3.9 °C 1013.1 hPa Calm   8.0 km/h 86% 0.0 mm 42.00 W/m2
09:05 6.0 °C 3.8 °C 1013.4 hPa North 1.4 km/h 8.0 km/h 86% 0.0 mm 42.00 W/m2
09:10 6.0 °C 3.8 °C 1013.4 hPa NE 13.0 km/h 12.9 km/h 86% 0.0 mm 44.00 W/m2
09:15 6.0 °C 3.8 °C 1013.4 hPa NE 4.7 km/h 6.4 km/h 86% 0.0 mm 49.00 W/m2
09:20 5.8 °C 3.6 °C 1013.4 hPa NNE 9.7 km/h 16.1 km/h 86% 0.0 mm 58.00 W/m2
09:25 5.8 °C 3.6 °C 1013.4 hPa NE 3.2 km/h 11.3 km/h 86% 0.0 mm 62.00 W/m2
09:30 5.8 °C 3.6 °C 1013.8 hPa NNE 4.7 km/h 9.7 km/h 86% 0.0 mm 67.00 W/m2
09:35 5.7 °C 3.5 °C 1013.8 hPa NE 13.0 km/h 17.7 km/h 86% 0.0 mm 74.00 W/m2
09:40 5.8 °C 3.6 °C 1014.1 hPa NE 4.7 km/h 11.3 km/h 86% 0.0 mm 81.00 W/m2
09:45 5.8 °C 3.6 °C 1014.1 hPa North 1.4 km/h 4.8 km/h 86% 0.0 mm 81.00 W/m2
09:50 5.9 °C 3.7 °C 1014.1 hPa ENE 1.4 km/h 9.7 km/h 86% 0.0 mm 86.00 W/m2
09:55 5.9 °C 3.6 °C 1014.4 hPa NNE 6.4 km/h 16.1 km/h 85% 0.0 mm 88.00 W/m2
10:00 5.9 °C 3.6 °C 1014.4 hPa NE 3.2 km/h 11.3 km/h 85% 0.0 mm 81.00 W/m2
10:05 5.9 °C 3.6 °C 1014.4 hPa ENE 6.4 km/h 14.5 km/h 85% 0.0 mm 62.00 W/m2
10:10 5.9 °C 3.6 °C 1014.4 hPa NE 1.4 km/h 6.4 km/h 85% 0.0 mm 70.00 W/m2
10:15 6.0 °C 3.7 °C 1014.4 hPa NE 11.1 km/h 12.9 km/h 85% 0.0 mm 132.00 W/m2
10:20 6.4 °C 4.1 °C 1014.4 hPa NE 11.1 km/h 17.7 km/h 85% 0.0 mm 239.00 W/m2
10:25 6.7 °C 4.4 °C 1014.4 hPa NE 9.7 km/h 16.1 km/h 85% 0.0 mm 258.00 W/m2
10:30 6.8 °C 4.3 °C 1014.4 hPa NNE 3.2 km/h 12.9 km/h 84% 0.0 mm 274.00 W/m2
10:35 7.1 °C 4.6 °C 1014.8 hPa NNE 7.9 km/h 9.7 km/h 84% 0.0 mm 229.00 W/m2
10:40 7.3 °C 4.8 °C 1014.4 hPa ENE 4.7 km/h 9.7 km/h 84% 0.0 mm 167.00 W/m2
10:45 7.3 °C 4.6 °C 1014.4 hPa NE 6.4 km/h 17.7 km/h 83% 0.0 mm 149.00 W/m2
10:50 7.3 °C 4.6 °C 1014.8 hPa ENE 20.9 km/h 20.9 km/h 83% 0.3 mm 279.00 W/m2
10:55 7.6 °C 4.9 °C 1014.4 hPa East 13.0 km/h 14.5 km/h 83% 0.3 mm 214.00 W/m2
11:00 7.8 °C 5.1 °C 1014.4 hPa ENE 16.3 km/h 17.7 km/h 83% 0.3 mm 271.00 W/m2
11:05 7.8 °C 4.9 °C 1014.4 hPa NE 11.1 km/h 17.7 km/h 82% 0.3 mm 279.00 W/m2
11:10 7.9 °C 5.0 °C 1014.4 hPa NE 6.4 km/h 17.7 km/h 82% 0.3 mm 285.00 W/m2
11:15 8.2 °C 5.3 °C 1014.4 hPa NNE 1.4 km/h 17.7 km/h 82% 0.3 mm 269.00 W/m2
11:20 8.2 °C 5.1 °C 1014.4 hPa NE 11.1 km/h 22.5 km/h 81% 0.3 mm 149.00 W/m2
11:25 8.3 °C 5.4 °C 1014.1 hPa NNE 11.1 km/h 14.5 km/h 82% 0.3 mm 297.00 W/m2
11:30 8.3 °C 5.2 °C 1014.4 hPa East 9.7 km/h 14.5 km/h 81% 0.3 mm 86.00 W/m2
11:35 8.2 °C 5.1 °C 1014.4 hPa East 7.9 km/h 20.9 km/h 81% 0.3 mm 100.00 W/m2
11:40 8.4 °C 5.3 °C 1014.1 hPa East 3.2 km/h 14.5 km/h 81% 0.3 mm 323.00 W/m2
11:45 8.8 °C 5.5 °C 1014.4 hPa East 13.0 km/h 12.9 km/h 80% 0.3 mm 316.00 W/m2
11:50 9.1 °C 5.7 °C 1014.1 hPa NE 4.7 km/h 14.5 km/h 79% 0.0 mm 316.00 W/m2
11:55 8.8 °C 5.2 °C 1014.1 hPa NE 11.1 km/h 20.9 km/h 78% 0.0 mm 338.00 W/m2
12:00 8.4 °C 5.0 °C 1014.1 hPa NE 9.7 km/h 17.7 km/h 79% 0.0 mm 350.00 W/m2
12:05 8.7 °C 5.4 °C 1014.1 hPa NE 4.7 km/h 12.9 km/h 80% 0.0 mm 306.00 W/m2
12:10 8.8 °C 5.5 °C 1014.1 hPa North 6.4 km/h 6.4 km/h 80% 0.0 mm 139.00 W/m2
12:15 8.6 °C 5.2 °C 1014.1 hPa North 11.1 km/h 16.1 km/h 79% 0.0 mm 353.00 W/m2
12:20 8.3 °C 5.1 °C 1014.1 hPa ENE 4.7 km/h 11.3 km/h 80% 0.0 mm 149.00 W/m2
12:25 8.4 °C 5.2 °C 1014.1 hPa NE 4.7 km/h 4.8 km/h 80% 0.0 mm 139.00 W/m2
12:30 8.2 °C 4.8 °C 1014.1 hPa NNE 4.7 km/h 9.7 km/h 79% 0.0 mm 74.00 W/m2
12:35 8.4 °C 5.2 °C 1014.1 hPa NNE 6.4 km/h 8.0 km/h 80% 0.0 mm 320.00 W/m2
12:40 9.3 °C 6.0 °C 1014.4 hPa Calm   6.4 km/h 80% 0.0 mm 322.00 W/m2
12:45 10.0 °C 6.3 °C 1014.4 hPa ENE 3.2 km/h 8.0 km/h 78% 0.0 mm 339.00 W/m2
12:50 9.8 °C 5.6 °C 1014.4 hPa NNE 13.0 km/h 12.9 km/h 75% 0.0 mm 336.00 W/m2
12:55 8.9 °C 5.3 °C 1014.4 hPa NNE 11.1 km/h 14.5 km/h 78% 0.0 mm 327.00 W/m2
13:00 8.8 °C 5.4 °C 1014.4 hPa North 4.7 km/h 9.7 km/h 79% 0.0 mm 318.00 W/m2
13:05 9.3 °C 6.0 °C 1014.4 hPa NNW 7.9 km/h 9.7 km/h 80% 0.0 mm 295.00 W/m2
13:10 10.0 °C 6.5 °C 1014.4 hPa Calm   8.0 km/h 79% 0.0 mm 257.00 W/m2
13:15 10.5 °C 6.4 °C 1014.4 hPa NE 7.9 km/h 16.1 km/h 76% 0.0 mm 306.00 W/m2
13:20 10.5 °C 6.4 °C 1014.1 hPa ENE 6.4 km/h 8.0 km/h 76% 0.0 mm 294.00 W/m2
13:25 9.7 °C 5.7 °C 1014.1 hPa NNE 4.7 km/h 8.0 km/h 76% 0.0 mm 287.00 W/m2
13:30 10.0 °C 6.0 °C 1014.1 hPa North 3.2 km/h 9.7 km/h 76% 0.0 mm 281.00 W/m2
13:35 9.8 °C 5.6 °C 1014.1 hPa NE 7.9 km/h 19.3 km/h 75% 0.0 mm 281.00 W/m2
13:40 9.7 °C 5.9 °C 1014.1 hPa Calm   4.8 km/h 77% 0.0 mm 211.00 W/m2
13:45 9.9 °C 6.2 °C 1014.1 hPa NNE 1.4 km/h 3.2 km/h 78% 0.0 mm 243.00 W/m2
13:50 9.8 °C 5.8 °C 1014.1 hPa NNE 1.4 km/h 9.7 km/h 76% 0.0 mm 251.00 W/m2
13:55 9.4 °C 5.4 °C 1014.1 hPa North 9.7 km/h 11.3 km/h 76% 0.0 mm 246.00 W/m2
14:00 9.2 °C 5.4 °C 1014.1 hPa NE 9.7 km/h 12.9 km/h 77% 0.0 mm 230.00 W/m2
14:05 9.4 °C 5.6 °C 1014.4 hPa North 9.7 km/h 11.3 km/h 77% 0.0 mm 229.00 W/m2
14:10 9.2 °C 5.4 °C 1014.4 hPa Calm   9.7 km/h 77% 0.0 mm 90.00 W/m2
14:15 9.4 °C 5.6 °C 1014.4 hPa Calm   4.8 km/h 77% 0.0 mm 162.00 W/m2
14:20 9.8 °C 6.1 °C 1014.4 hPa NW 4.7 km/h 8.0 km/h 78% 0.0 mm 244.00 W/m2
14:25 9.5 °C 5.5 °C 1014.4 hPa NNE 1.4 km/h 8.0 km/h 76% 0.0 mm 125.00 W/m2
14:30 9.3 °C 5.3 °C 1014.4 hPa NNW 3.2 km/h 6.4 km/h 76% 0.0 mm 69.00 W/m2
14:35 9.2 °C 5.4 °C 1014.4 hPa Calm   4.8 km/h 77% 0.0 mm 176.00 W/m2
14:40 9.2 °C 5.6 °C 1014.8 hPa Calm   1.6 km/h 78% 0.0 mm 104.00 W/m2
14:45 9.4 °C 5.6 °C 1014.8 hPa Calm   1.6 km/h 77% 0.0 mm 79.00 W/m2
14:50 9.7 °C 6.0 °C 1014.8 hPa Calm   1.6 km/h 78% 0.0 mm 81.00 W/m2
14:55 10.0 °C 6.2 °C 1014.8 hPa Calm   1.6 km/h 77% 0.0 mm 144.00 W/m2
15:00 10.3 °C 6.4 °C 1014.4 hPa NNW 1.4 km/h 4.8 km/h 77% 0.0 mm 128.00 W/m2
15:05 10.4 °C 6.4 °C 1014.4 hPa NNW 3.2 km/h 6.4 km/h 76% 0.0 mm 84.00 W/m2
15:10 10.1 °C 5.9 °C 1014.4 hPa North 4.7 km/h 6.4 km/h 75% 0.0 mm 102.00 W/m2
15:15 9.9 °C 5.7 °C 1014.8 hPa North 8.0 km/h 8.0 km/h 75% 0.0 mm 109.00 W/m2
15:20 9.6 °C 5.4 °C 1014.8 hPa North 3.2 km/h 6.4 km/h 75% 0.0 mm 95.00 W/m2
15:25 9.2 °C 5.2 °C 1014.8 hPa North 4.7 km/h 6.4 km/h 76% 0.0 mm 33.00 W/m2
15:30 8.7 °C 5.1 °C 1014.8 hPa NNW 3.2 km/h 6.4 km/h 78% 0.0 mm 25.00 W/m2
15:35 8.4 °C 5.0 °C 1014.8 hPa NNW 4.7 km/h 8.0 km/h 79% 0.0 mm 19.00 W/m2
15:40 8.2 °C 5.0 °C 1014.4 hPa NNW 4.7 km/h 6.4 km/h 80% 0.0 mm 14.00 W/m2
15:45 8.1 °C 5.0 °C 1014.4 hPa NNW 1.4 km/h 4.8 km/h 81% 0.0 mm 14.00 W/m2
15:50 8.0 °C 4.9 °C 1014.4 hPa Calm   4.8 km/h 81% 0.0 mm 14.00 W/m2
15:55 8.0 °C 5.1 °C 1014.4 hPa Calm     82% 0.0 mm 16.00 W/m2
16:00 8.1 °C 5.2 °C 1014.1 hPa Calm   1.6 km/h 82% 0.0 mm 16.00 W/m2
16:05 8.2 °C 5.3 °C 1014.1 hPa Calm     82% 0.0 mm 12.00 W/m2
16:10 8.2 °C 5.3 °C 1014.1 hPa Calm     82% 0.0 mm 9.00 W/m2
16:15 8.1 °C 5.2 °C 1014.1 hPa Calm     82% 0.0 mm 5.00 W/m2
16:20 7.8 °C 4.9 °C 1014.1 hPa Calm     82% 0.0 mm 0.00 W/m2
16:25 7.6 °C 4.9 °C 1014.1 hPa Calm     83% 0.0 mm 0.00 W/m2
16:30 7.3 °C 4.6 °C 1013.8 hPa Calm     83% 0.0 mm 0.00 W/m2
16:35 7.2 °C 4.7 °C 1014.1 hPa Calm     84% 0.0 mm 0.00 W/m2
16:40 6.8 °C 4.3 °C 1013.8 hPa Calm   1.6 km/h 84% 0.0 mm 0.00 W/m2
16:45 6.5 °C 4.2 °C 1013.8 hPa NNW 1.4 km/h 3.2 km/h 85% 0.0 mm 0.00 W/m2
16:50 6.3 °C 4.1 °C 1013.8 hPa NNW 1.4 km/h 4.8 km/h 86% 0.0 mm 0.00 W/m2
16:55 6.1 °C 3.9 °C 1013.8 hPa Calm   3.2 km/h 86% 0.0 mm 0.00 W/m2
17:00 5.9 °C 3.9 °C 1014.1 hPa Calm   3.2 km/h 87% 0.0 mm 0.00 W/m2
17:05 5.8 °C 3.8 °C 1014.1 hPa Calm   1.6 km/h 87% 0.0 mm 0.00 W/m2
17:10 5.8 °C 4.0 °C 1014.1 hPa Calm     88% 0.0 mm 0.00 W/m2
17:15 5.6 °C 3.8 °C 1013.8 hPa NNW 1.4 km/h 3.2 km/h 88% 0.0 mm 0.00 W/m2
17:20 5.5 °C 3.7 °C 1013.8 hPa Calm     88% 0.0 mm 0.00 W/m2
17:25 6.0 °C 4.2 °C 1013.4 hPa Calm   1.6 km/h 88% 0.0 mm 0.00 W/m2
17:30 6.4 °C 4.7 °C 1013.4 hPa Calm     89% 0.0 mm 0.00 W/m2
17:35 6.8 °C 5.1 °C 1013.4 hPa NNW 1.4 km/h 3.2 km/h 89% 0.0 mm 0.00 W/m2
17:40 6.9 °C 5.2 °C 1013.1 hPa Calm   3.2 km/h 89% 0.0 mm 0.00 W/m2
17:45 6.9 °C 5.2 °C 1012.8 hPa Calm   1.6 km/h 89% 0.0 mm 0.00 W/m2
17:50 6.8 °C 5.1 °C 1012.4 hPa Calm   1.6 km/h 89% 0.0 mm 0.00 W/m2
17:55 6.3 °C 4.6 °C 1012.4 hPa Calm   3.2 km/h 89% 0.0 mm 0.00 W/m2
18:00 5.9 °C 4.1 °C 1012.1 hPa Calm   3.2 km/h 88% 0.0 mm 0.00 W/m2
18:05 5.8 °C 4.1 °C 1012.1 hPa Calm   1.6 km/h 89% 0.0 mm 0.00 W/m2
18:10 5.7 °C 4.0 °C 1011.7 hPa Calm   1.6 km/h 89% 0.0 mm 0.00 W/m2
18:15 5.7 °C 4.0 °C 1011.4 hPa NNE 1.4 km/h 1.6 km/h 89% 0.0 mm 0.00 W/m2
18:20 5.7 °C 4.0 °C 1011.4 hPa Calm     89% 0.0 mm 0.00 W/m2
18:25 5.7 °C 4.0 °C 1011.1 hPa Calm     89% 0.0 mm 0.00 W/m2
18:30 5.7 °C 4.0 °C 1011.1 hPa Calm     89% 0.0 mm 0.00 W/m2
18:35 5.7 °C 4.0 °C 1011.1 hPa NNE 1.4 km/h 6.4 km/h 89% 0.0 mm 0.00 W/m2
18:40 5.8 °C 4.1 °C 1011.1 hPa Calm   4.8 km/h 89% 0.0 mm 0.00 W/m2
18:45 5.8 °C 4.3 °C 1011.4 hPa Calm     90% 0.0 mm 0.00 W/m2
18:50 5.8 °C 4.3 °C 1011.7 hPa Calm     90% 0.0 mm 0.00 W/m2
18:55 5.7 °C 4.2 °C 1011.7 hPa Calm     90% 0.0 mm 0.00 W/m2
19:00 5.8 °C 4.3 °C 1012.1 hPa Calm     90% 0.0 mm 0.00 W/m2
19:05 5.9 °C 4.4 °C 1012.1 hPa Calm     90% 0.0 mm 0.00 W/m2
19:10 6.1 °C 4.6 °C 1012.4 hPa Calm   1.6 km/h 90% 0.0 mm 0.00 W/m2
19:15 6.1 °C 4.6 °C 1012.4 hPa NNE 1.4 km/h 3.2 km/h 90% 0.0 mm 0.00 W/m2
19:20 6.0 °C 4.5 °C 1012.4 hPa Calm   1.6 km/h 90% 0.0 mm 0.00 W/m2
19:25 5.9 °C 4.4 °C 1012.4 hPa Calm     90% 0.0 mm 0.00 W/m2
19:30 5.9 °C 4.4 °C 1012.4 hPa Calm     90% 0.0 mm 0.00 W/m2
19:35 5.9 °C 4.4 °C 1012.1 hPa Calm     90% 0.0 mm 0.00 W/m2
19:40 5.9 °C 4.4 °C 1011.7 hPa Calm   1.6 km/h 90% 0.0 mm 0.00 W/m2
19:45 5.9 °C 4.4 °C 1011.7 hPa Calm   6.4 km/h 90% 0.0 mm 0.00 W/m2
19:50 5.9 °C 4.4 °C 1011.4 hPa NNE 3.2 km/h 3.2 km/h 90% 0.0 mm 0.00 W/m2
19:55 5.9 °C 4.4 °C 1011.4 hPa NNE 1.4 km/h 8.0 km/h 90% 0.0 mm 0.00 W/m2
20:00 5.9 °C 4.4 °C 1011.1 hPa Calm   6.4 km/h 90% 0.0 mm 0.00 W/m2
20:05 5.9 °C 4.4 °C 1011.1 hPa Calm   6.4 km/h 90% 0.0 mm 0.00 W/m2
20:10 6.0 °C 4.5 °C 1011.1 hPa NNE 1.4 km/h 4.8 km/h 90% 0.0 mm 0.00 W/m2
20:15 6.0 °C 4.5 °C 1011.4 hPa Calm   1.6 km/h 90% 0.0 mm 0.00 W/m2
20:20 6.1 °C 4.6 °C 1011.7 hPa Calm     90% 0.0 mm 0.00 W/m2
20:25 6.1 °C 4.6 °C 1011.7 hPa Calm   1.6 km/h 90% 0.0 mm 0.00 W/m2
20:30 6.1 °C 4.6 °C 1011.7 hPa Calm     90% 0.0 mm 0.00 W/m2
20:35 6.1 °C 4.6 °C 1011.7 hPa Calm     90% 0.0 mm 0.00 W/m2
20:40 6.1 °C 4.6 °C 1011.7 hPa Calm     90% 0.0 mm 0.00 W/m2
20:45 6.1 °C 4.6 °C 1011.7 hPa Calm     90% 0.0 mm 0.00 W/m2
20:50 6.1 °C 4.6 °C 1011.7 hPa Calm     90% 0.0 mm 0.00 W/m2
20:55 6.1 °C 4.6 °C 1011.7 hPa Calm   1.6 km/h 90% 0.0 mm 0.00 W/m2
21:00 6.0 °C 4.5 °C 1011.7 hPa Calm     90% 0.0 mm 0.00 W/m2
21:05 5.9 °C 4.4 °C 1011.7 hPa Calm     90% 0.0 mm 0.00 W/m2
21:10 5.8 °C 4.3 °C 1011.7 hPa Calm   3.2 km/h 90% 0.0 mm 0.00 W/m2
21:15 5.8 °C 4.3 °C 1011.7 hPa Calm     90% 0.0 mm 0.00 W/m2
21:20 5.8 °C 4.3 °C 1011.4 hPa Calm     90% 0.0 mm 0.00 W/m2
21:25 5.8 °C 4.3 °C 1011.4 hPa NNE 1.4 km/h 4.8 km/h 90% 0.0 mm 0.00 W/m2
21:30 5.8 °C 4.3 °C 1011.4 hPa Calm   1.6 km/h 90% 0.0 mm 0.00 W/m2
21:35 5.8 °C 4.3 °C 1011.4 hPa Calm     90% 0.0 mm 0.00 W/m2
21:40 5.8 °C 4.4 °C 1011.1 hPa Calm     91% 0.0 mm 0.00 W/m2
21:45 5.8 °C 4.4 °C 1011.1 hPa Calm     91% 0.0 mm 0.00 W/m2
21:50 5.9 °C 4.5 °C 1011.1 hPa Calm     91% 0.0 mm 0.00 W/m2
21:55 5.9 °C 4.5 °C 1010.7 hPa Calm     91% 0.0 mm 0.00 W/m2
22:00 5.9 °C 4.5 °C 1010.7 hPa Calm     91% 0.0 mm 0.00 W/m2
22:05 5.9 °C 4.5 °C 1010.4 hPa Calm     91% 0.0 mm 0.00 W/m2
22:10 6.0 °C 4.6 °C 1010.4 hPa Calm     91% 0.0 mm 0.00 W/m2
22:15 6.1 °C 4.7 °C 1010.0 hPa NNE 1.4 km/h 1.6 km/h 91% 0.0 mm 0.00 W/m2
22:20 6.2 °C 4.8 °C 1010.0 hPa NNE 4.7 km/h 4.8 km/h 91% 0.0 mm 0.00 W/m2
22:25 6.3 °C 4.9 °C 1010.0 hPa Calm   3.2 km/h 91% 0.0 mm 0.00 W/m2
22:30 6.3 °C 4.9 °C 1009.7 hPa NNE 4.7 km/h 6.4 km/h 91% 0.0 mm 0.00 W/m2
22:35 6.4 °C 5.0 °C 1009.7 hPa NNE 1.4 km/h 3.2 km/h 91% 0.0 mm 0.00 W/m2
22:40 6.4 °C 5.0 °C 1009.4 hPa Calm     91% 0.0 mm 0.00 W/m2
22:45 6.5 °C 5.0 °C 1009.0 hPa Calm   3.2 km/h 90% 0.0 mm 0.00 W/m2
22:50 6.5 °C 5.0 °C 1009.0 hPa Calm   1.6 km/h 90% 0.3 mm 0.00 W/m2
22:55 6.5 °C 5.0 °C 1009.0 hPa Calm   1.6 km/h 90% 0.3 mm 0.00 W/m2
23:00 6.5 °C 5.0 °C 1008.7 hPa NNE 3.2 km/h 4.8 km/h 90% 0.3 mm 0.00 W/m2
23:05 6.5 °C 5.0 °C 1008.7 hPa Calm   1.6 km/h 90% 0.3 mm 0.00 W/m2
23:10 6.5 °C 5.0 °C 1008.4 hPa Calm     90% 0.3 mm 0.00 W/m2
23:15 6.5 °C 5.0 °C 1008.4 hPa Calm     90% 0.3 mm 0.00 W/m2
23:20 6.6 °C 5.1 °C 1008.4 hPa Calm   1.6 km/h 90% 0.3 mm 0.00 W/m2
23:25 6.6 °C 5.1 °C 1008.4 hPa Calm   3.2 km/h 90% 0.3 mm 0.00 W/m2
23:30 6.6 °C 5.2 °C 1008.0 hPa Calm     91% 0.3 mm 0.00 W/m2
23:35 6.6 °C 5.1 °C 1008.0 hPa Calm   4.8 km/h 90% 0.3 mm 0.00 W/m2
23:40 6.6 °C 5.1 °C 1007.7 hPa SE 3.2 km/h 3.2 km/h 90% 0.3 mm 0.00 W/m2
23:45 6.6 °C 5.2 °C 1007.3 hPa Calm   4.8 km/h 91% 0.3 mm 0.00 W/m2
23:50 6.5 °C 5.1 °C 1007.3 hPa SE 4.7 km/h 6.4 km/h 91% 0.3 mm 0.00 W/m2
23:55 6.5 °C 5.1 °C 1007.0 hPa Calm   1.6 km/h 91% 0.3 mm 0.00 W/m2